{"data":{"norad_id":69858,"intl_designator":"2026-155L","name":"QIANFAN-229","alt_names":[],"object_type":"PAYLOAD","status":"ACTIVE","operator":null,"country":"PRC","launch_date":"2026-07-05","launch_site_code":"WSC","launch_vehicle":null,"mission":null,"orbit_class":"UNKNOWN","rcs_meters":null,"size_class":null,"mass_kg":null,"dimensions":null,"purposes":[],"wikipedia_slug":null,"has_3d_model":false,"image_url":null,"decayed_at":null,"tle_current":{"epoch":"2026-09-19T18:53:22.074720Z","epoch_age_seconds":83266,"freshness":"FRESH","line1":"1 69858U 26155L   26262.78706105 -.01877480  00000+0 -32123+1 0  9994","line2":"2 69858  89.0090  53.7705 0038013   8.9911 351.1911 13.48849488 10643","mean_motion":13.48849488,"eccentricity":0.0038013,"inclination_deg":89.009,"raan_deg":53.7705,"arg_perigee_deg":8.9911,"mean_anomaly_deg":351.1911,"bstar":-3.2123,"rev_number":1064,"period_min":106.75764885637,"perigee_km":1048.1572136269,"apogee_km":1104.831795102,"semimajor_km":7454.6315043644,"source":"CELESTRAK","updated_at":"2026-09-20T09:00:25.159003Z"}}}